Fortuna, CA

4:19 PM PST on February 06, 2016 (GMT -0800)
Rohnerville

Weather History for KFOT - October, 2012

Change the Weather History Date:

Friday, October 5, 2012

  Actual Average (KEKA) Record (KEKA)
Temperature  
Mean Temperature 61 °F 55 °F  
Max Temperature 69 °F 63 °F 84 °F (1987)
Min Temperature 53 °F 48 °F 38 °F (1916)
Degree Days  
Heating Degree Days 4 10  
Month to date heating degree days 48  
Since 1 July heating degree days 713  
Cooling Degree Days 0 0  
Month to date cooling degree days 0  
Year to date cooling degree days 0  
Growing Degree Days 11 (Base 50)    
Moisture  
Dew Point 54 °F    
Average Humidity 83    
Maximum Humidity 100    
Minimum Humidity 49    
Precipitation  
Precipitation 0.00 in 0.03 in 0.92 in (1923)
Month to date precipitation 0.16  
Year to date precipitation 24.52  
Snow  
Snow - 0.00 in 0.00 in (2002)
Month to date snowfall 0.0  
Since 1 July snowfall 0.0  
Since 1 September snowfall 0.0  
Snow Depth -    
Sea Level Pressure  
Sea Level Pressure 30.12 in    
Wind  
Wind Speed 3 mph ()    
Max Wind Speed 14 mph    
Max Gust Speed 16 mph    
Visibility 9.3 miles    
Events      
T = Trace of Precipitation, MM = Missing Value Source: Averaged Metar Reports

Daily Weather History Graph

Daily Weather History Graph

Search for Another Location

Airport or City:

Trip Planner

Search our weather history database for the weather conditions in past years. The results will help you decide how hot, cold, wet, or windy it might be!

Date:

Astronomy

Oct. 05, 2012 Rise Set
Actual Time 7:17 AM PDT 6:51 PM PDT
Civil Twilight 6:50 AM PDT 7:18 PM PDT
Nautical Twilight 6:18 AM PDT 7:49 PM PDT
Astronomical Twilight 5:46 AM PDT 8:21 PM PDT
Moon 10:18 PM PDT (10/5) 12:31 PM PDT (10/5)
Length of Visible Light 12h 27m
Length of Day
11h 33m
Waning Gibbous, 73% of the Moon is Illuminated
Oct 5
Waning Gibbous
Oct 8
Last Quarter
Oct 15
New
Oct 21
First Quarter
Oct 29
Full

Hourly Weather History & Observations

Time (PDT) Temp. Dew Point Humidity Pressure Visibility Wind Dir Wind Speed Gust Speed Precip Events Conditions
12:15 AM 53.6 °F 53.6 °F 100% 30.15 in 4.0 mi Calm Calm - N/A   Overcast
12:35 AM 53.6 °F 53.6 °F 100% 30.15 in 2.5 mi Calm Calm - N/A   Overcast
12:55 AM 53.6 °F 53.6 °F 100% 30.15 in 4.0 mi Calm Calm - N/A   Overcast
1:15 AM 53.6 °F 53.6 °F 100% 30.15 in 6.0 mi Calm Calm - N/A   Overcast
1:35 AM 53.6 °F 53.6 °F 100% 30.15 in 4.0 mi Calm Calm - N/A   Overcast
1:55 AM 53.6 °F 53.6 °F 100% 30.15 in 5.0 mi Calm Calm - N/A   Overcast
2:15 AM 53.6 °F 53.6 °F 100% 30.16 in 5.0 mi Calm Calm - N/A   Overcast
2:35 AM 53.6 °F 53.6 °F 100% 30.16 in 8.0 mi Calm Calm - N/A   Overcast
2:55 AM 53.6 °F 53.6 °F 100% 30.16 in 7.0 mi Calm Calm - N/A   Overcast
3:15 AM 53.6 °F 53.6 °F 100% 30.15 in 9.0 mi Calm Calm - N/A   Overcast
3:35 AM 53.6 °F 53.6 °F 100% 30.15 in 10.0 mi Calm Calm - N/A   Overcast
3:55 AM 53.6 °F 53.6 °F 100% 30.15 in 10.0 mi Calm Calm - N/A   Overcast
4:15 AM 53.6 °F 53.6 °F 100% 30.14 in 10.0 mi Calm Calm - N/A   Overcast
4:35 AM 53.6 °F 53.6 °F 100% 30.14 in 9.0 mi Calm Calm - N/A   Overcast
4:55 AM 53.6 °F 53.6 °F 100% 30.14 in 9.0 mi East 3.5 mph - N/A   Overcast
5:15 AM 53.6 °F 53.6 °F 100% 30.13 in 10.0 mi East 5.8 mph - N/A   Overcast
5:35 AM 53.6 °F 53.6 °F 100% 30.13 in 10.0 mi SSE 4.6 mph - N/A   Overcast
5:55 AM 53.6 °F 53.6 °F 100% 30.14 in 10.0 mi SE 5.8 mph - N/A   Overcast
6:35 AM 53.6 °F 53.6 °F 100% 30.14 in 10.0 mi Calm Calm - N/A   Overcast
6:55 AM 53.6 °F 53.6 °F 100% 30.15 in 10.0 mi Calm Calm - N/A   Overcast
7:35 AM 55.4 °F 51.8 °F 88% 30.14 in 10.0 mi ESE 10.4 mph - N/A   Overcast
7:55 AM 55.4 °F 51.8 °F 88% 30.14 in 10.0 mi SE 10.4 mph - N/A   Overcast
8:15 AM 55.4 °F 51.8 °F 88% 30.14 in 10.0 mi SE 8.1 mph - N/A   Overcast
8:35 AM 55.4 °F 53.6 °F 94% 30.15 in 10.0 mi SE 11.5 mph - N/A   Overcast
8:55 AM 57.2 °F 53.6 °F 88% 30.15 in 10.0 mi ESE 8.1 mph - N/A   Overcast
9:15 AM 57.2 °F 53.6 °F 88% 30.15 in 10.0 mi ESE 11.5 mph - N/A   Overcast
9:35 AM 59.0 °F 53.6 °F 82% 30.15 in 10.0 mi ESE 11.5 mph - N/A   Mostly Cloudy
9:55 AM 60.8 °F 51.8 °F 72% 30.15 in 10.0 mi ESE 12.7 mph - N/A   Mostly Cloudy
10:15 AM 60.8 °F 53.6 °F 77% 30.15 in 10.0 mi ESE 10.4 mph - N/A   Overcast
10:35 AM 62.6 °F 53.6 °F 72% 30.14 in 10.0 mi ESE 11.5 mph - N/A   Overcast
10:55 AM 62.6 °F 53.6 °F 72% 30.14 in 10.0 mi ESE 6.9 mph - N/A   Scattered Clouds
11:15 AM 62.6 °F 51.8 °F 68% 30.14 in 10.0 mi ESE 11.5 mph - N/A   Mostly Cloudy
11:35 AM 64.4 °F 51.8 °F 64% 30.13 in 10.0 mi SE 10.4 mph - N/A   Overcast
11:55 AM 66.2 °F 51.8 °F 60% 30.13 in 10.0 mi SE 10.4 mph - N/A   Overcast
12:15 PM 66.2 °F 51.8 °F 60% 30.13 in 10.0 mi SE 6.9 mph - N/A   Overcast
12:35 PM 66.2 °F 51.8 °F 60% 30.12 in 10.0 mi SE 10.4 mph - N/A   Overcast
12:55 PM 66.2 °F 51.8 °F 60% 30.12 in 10.0 mi SSE 6.9 mph - N/A   Overcast
1:15 PM 68.0 °F 51.8 °F 56% 30.11 in 10.0 mi Calm Calm - N/A   Overcast
1:35 PM 68.0 °F 51.8 °F 56% 30.11 in 10.0 mi SE 8.1 mph 16.1 mph N/A   Mostly Cloudy
1:55 PM 69.8 °F 50.0 °F 49% 30.10 in 10.0 mi ESE 3.5 mph - N/A   Partly Cloudy
2:15 PM 69.8 °F 50.0 °F 49% 30.10 in 10.0 mi SE 9.2 mph - N/A   Clear
2:35 PM 69.8 °F 50.0 °F 49% 30.09 in 10.0 mi WSW 5.8 mph - N/A   Partly Cloudy
2:55 PM 68.0 °F 53.6 °F 60% 30.08 in 10.0 mi NW 9.2 mph - N/A   Partly Cloudy
3:15 PM 68.0 °F 53.6 °F 60% 30.08 in 10.0 mi NW 8.1 mph - N/A   Partly Cloudy
3:35 PM 68.0 °F 53.6 °F 60% 30.08 in 10.0 mi NW 4.6 mph - N/A   Clear
3:55 PM 69.8 °F 53.6 °F 56% 30.07 in 10.0 mi Calm Calm - N/A   Scattered Clouds
4:15 PM 68.0 °F 53.6 °F 60% 30.08 in 10.0 mi Calm Calm - N/A   Scattered Clouds
4:35 PM 69.8 °F 53.6 °F 56% 30.07 in 10.0 mi North 4.6 mph - N/A   Clear
4:55 PM 68.0 °F 53.6 °F 60% 30.07 in 10.0 mi North 8.1 mph - N/A   Clear
5:15 PM 68.0 °F 53.6 °F 60% 30.07 in 10.0 mi NNW 9.2 mph - N/A   Clear
5:35 PM 66.2 °F 53.6 °F 64% 30.07 in 10.0 mi NNW 6.9 mph - N/A   Clear
5:55 PM 64.4 °F 53.6 °F 68% 30.07 in 10.0 mi NW 13.8 mph - N/A   Clear
6:15 PM 62.6 °F 55.4 °F 77% 30.08 in 10.0 mi NW 10.4 mph - N/A   Clear
6:35 PM 60.8 °F 55.4 °F 82% 30.08 in 10.0 mi NW 3.5 mph - N/A   Clear
6:55 PM 59.0 °F 53.6 °F 82% 30.09 in 10.0 mi Calm Calm - N/A   Clear
7:15 PM 57.2 °F 55.4 °F 94% 30.09 in 10.0 mi NNW 8.1 mph - N/A   Clear
7:35 PM 57.2 °F 55.4 °F 94% 30.10 in 10.0 mi North 11.5 mph - N/A   Mostly Cloudy
7:55 PM 57.2 °F 53.6 °F 88% 30.10 in 10.0 mi Calm Calm - N/A   Mostly Cloudy
8:15 PM 57.2 °F 55.4 °F 94% 30.11 in 10.0 mi Calm Calm - N/A   Mostly Cloudy
8:35 PM 57.2 °F 55.4 °F 94% 30.11 in 10.0 mi Calm Calm - N/A   Overcast
8:55 PM 57.2 °F 55.4 °F 94% 30.11 in 10.0 mi Calm Calm - N/A   Overcast
9:15 PM 57.2 °F 55.4 °F 94% 30.11 in 10.0 mi Calm Calm - N/A   Overcast
9:35 PM 57.2 °F 55.4 °F 94% 30.11 in 10.0 mi Calm Calm - N/A   Overcast
9:55 PM 57.2 °F 55.4 °F 94% 30.11 in 10.0 mi Calm Calm - N/A   Overcast
10:15 PM 57.2 °F 55.4 °F 94% 30.11 in 10.0 mi Calm Calm - N/A   Overcast
10:35 PM 57.2 °F 55.4 °F 94% 30.11 in 10.0 mi Calm Calm - N/A   Overcast
10:55 PM 57.2 °F 55.4 °F 94% 30.11 in 10.0 mi Calm Calm - N/A   Overcast
11:15 PM 57.2 °F 55.4 °F 94% 30.11 in 10.0 mi Calm Calm - N/A   Overcast
11:35 PM 57.2 °F 55.4 °F 94% 30.11 in 10.0 mi Calm Calm - N/A   Overcast
11:55 PM 57.2 °F 55.4 °F 94% 30.11 in 10.0 mi Calm Calm - N/A   Overcast